Location: Rowland
(34.5359°N, 79.2929°W)
Time: 17:07:43
(UTC+00:00)

S-56A Canister/Altair - Pass Details

Date: 04 October 2022
Orbit: 638 x 2494 km, 38.9° (Epoch: 06 December)

Event Time Altitude Azimuth Distance (km) Brightness Sun altitude
Exits shadow 08:56:15 47° 302° (WNW) 1,757 9.0 -28.9°
Maximum altitude 08:58:44 65° 2° (N) 1,362 8.7 -28.4°
Drops below altitude 10° 09:05:13 10° 84° (E) 2,690 11.3 -27.2°
Sets 09:07:25 0° 88° (E) 3,462 12.1 -26.7°
